Ackley, IA (50601)

11:45 AM CDT on July 25, 2016 (GMT -0500)
Jensen Farm | | Change Station

Elev 1129 ft 42.50 °N, 93.20 °W | Updated 49 seconds ago

Clear
Clear
80.5 °F
Feels Like 79 °F
N
6.0
Wind Variable Wind from NW
Gusts 7.0 mph

Today
High -- | Low -- °F
--% Chance of Precip.
Yesterday
High -- | Low -- °F
Precip. -- in
Pressure 30.11 in
Visibility 10.0 miles
Clouds Clear
Heat Index 79 °F
Dew Point 38 °F
Humidity 22%
Rainfall 0.00 in
Snow Depth Not available.
5:57 AM 8:39 PM
Waning Gibbous, 64% visible
METAR KIFA 251635Z AUTO 32006KT 10SM CLR 27/17 A3011 RMK AO2 T02730167
Pressure 30.11 in
Visibility 10.0 miles
Clouds Clear
Heat Index 79 °F
Dew Point 38 °F
Humidity 22%
Rainfall 0.00 in
Snow Depth Not available.
5:57 AM 8:39 PM
Waning Gibbous, 64% visible
METAR KIFA 251635Z AUTO 32006KT 10SM CLR 27/17 A3011 RMK AO2 T02730167

10-Day Weather Forecast

Almanac

Astronomy

Jul. 25, 2016 Rise Set
Actual Time
Civil Twilight
Nautical Twilight
Astronomical Twilight
Moon
Length of Visible Light
Length of Day
Tomorrow will be .
, % of the Moon is Illuminated

Today's Extremes

State Highs State Lows

Community

WunderPhotos

Upload Photos

1,927,349 photos uploaded!

WunderBlog® & News

Nearby

Air Quality

  Air Quality AQ Index Pollutant
Not available.

Snow Depth

Station Depth Elevation

Earthquake Activity

City Distance Mag. Time & Date
Minimum magnitude displayed is 2.5.

Coastal Water Temperatures

Place Temperature

Stations

Nearby Weather Stations

Station Location Temp. Windchill Dew Point Humidity Wind Precip. Elev Updated Type
                   

Watches & Warnings

There are currently no watches in effect.